Location: Miss�
(46.9484°N, 0.1922°W)
Time: 22:07:07
(UTC+00:00)

Cosmos 1933 Rocket - Pass Details

Date: 02 March 2021
Orbit: 607 x 630 km, 82.5° (Epoch: 20 April)

Event Time Altitude Azimuth Distance (km) Brightness Sun altitude
Rises 18:39:15 0° 162° (SSE) 2,858 6.8 -9.5°
Reaches altitude 10° 18:41:37 10° 153° (SSE) 1,962 5.9 -9.9°
Maximum altitude 18:45:28 32° 90° (E) 1,068 4.2 -10.6°
Drops below altitude 10° 18:49:22 10° 28° (NNE) 1,988 5.9 -11.3°
Sets 18:51:46 0° 18° (NNE) 2,903 6.8 -11.7°
